Retour au catalogue

STARLINK-4108

ActifCommunicationsVLEO
NORAD 52834·PAYLOAD·🇺🇸 United States

Lancé Jun 17, 2022 depuis Cape Canaveral Space Force Station

Loading…

Prochains Passages (prochaines 24 heures)

TLE

FraisSource: CelesTrak SupGP

Époque: Sep 14, 2026, 21:43 UTC

1 52834C 22062E   26257.90534722  .00037663  00000+0  12109-2 0  2574
2 52834  53.1576 254.8707 0001288  93.3668 110.5690 15.31690528    11

Suivez STARLINK-4108 en temps réel avec AllMySat

Download on the App Store